Weather Roundup
Issued by NWS Springfield, MO

Home | Current Version | Previous Version | Text Only | Print | Product List | Glossary On
Versions: 1 2 3 4 5 6 7 8 9 10 11 12 13 14 15 16 17 18 19 20 21 22 23 24 25 26 27 28 29 30 31 32 33 34 35 36 37 38 39 40 41 42 43 44 45 46 47 48 49 50
000
NZUS99 KSGF 230357
HRRSGF

HOURLY WEATHER
NATIONAL WEATHER SERVICE SPRINGFIELD MO
1100 PM CDT FRI JUL 22 2016

......SGF CWA......

CITY           SKY/WX    TMP DP  RH WIND       PRES   REMARKS
SPRINGFIELD    CLEAR     83  72  69 S7        30.03S
JOPLIN         CLEAR     85  72  65 SE8       30.00S HX  91
WEST PLAINS    PTCLDY    80  75  84 CALM      30.08R
ROLLA          CLEAR     79  75  87 SE8       30.03F

......SURROUNDING SGF CWA......

CITY           SKY/WX    TMP DP  RH WIND       PRES   REMARKS
CHANUTE        CLEAR     83  72  69 SE8       29.97S
PARSONS        CLEAR     84  71  65 S3        29.98S
COFFEYVILLE    CLEAR     84  71  65 S6        29.97S
EMPORIA        PTCLDY    84  73  69 SE10      29.94S HX  90
HARRISON AR    CLEAR     82  74  76 CALM      30.06S

......KANSAS AND MISSOURI......

CITY           SKY/WX    TMP DP  RH WIND       PRES   REMARKS
KANSAS CTY INT MOCLDY    85  74  69 S12       29.96R HX  92
SEDALIA        CLEAR     81  76  84 S8        30.01F
ST JOSEPH      CLEAR     86  76  71 S6        29.95R HX  96
ST LOUIS       MOCLDY    82  72  71 S3        30.03F
WICHITA        PTCLDY    87  69  54 S13       29.93S HX  91
TOPEKA         CLEAR     87  71  58 SE8       29.94R HX  93
OLATHE         PTCLDY    82  74  76 S10       29.98R

......TENNESSEE......

CITY           SKY/WX    TMP DP  RH WIND       PRES   REMARKS
MEMPHIS        NOT AVBL
NASHVILLE      MOCLDY    80  70  71 CALM      30.04S

......ARKANSAS.......

CITY           SKY/WX    TMP DP  RH WIND       PRES   REMARKS
FAYETTEVILLE   CLEAR     76  76 100 CALM      30.04S
FT SMITH       PTCLDY    88  74  63 E5        29.98S HX  96
LITTLE ROCK    CLOUDY    84  74  71 W3        29.99F HX  91

......OKLAHOMA.......

CITY           SKY/WX    TMP DP  RH WIND       PRES   REMARKS
TULSA          CLEAR     89  71  55 SE8       29.96R HX  95
PONCA CITY     CLEAR     89  68  49 S10G25    29.94S HX  93
MCALESTER      CLEAR     81  73  76 CALM      30.00R
OKLAHOMA CITY  CLEAR     80  70  71 S6        29.99R

......IOWA............

CITY           SKY/WX    TMP DP  RH WIND       PRES   REMARKS
DES MOINES     NOT AVBL
QUAD CITIES    CLEAR     80  76  87 S3        29.97S

......ILLINOIS........

CITY           SKY/WX    TMP DP  RH WIND       PRES   REMARKS
QUINCY         CLOUDY    80  76  87 S7        30.01S
CHICAGO        MOCLDY    84  76  76 W5        29.98S HX  93



USA.gov is the U.S. government's official web portal to all federal, state and local government web resources and services.